Hourly Data Report for November 26, 2016

PITT MEADOWS CS
BRITISH COLUMBIA

49°12'29.964" N
122°41'24.076" W
5.00 m
1106178
71775
WMM

Download Data

Hourly Data (November 2016)
Hourly Data Report for November 26, 2016
TIME
LST
Temp Definition
°C
Dew Point Definition
°C
Rel Hum Definition
%
Precip. Amount Definition
mm

Wind Dir Definition
10's deg

Wind Spd Definition
km/h
Visibility Definition
km
Stn Press Definition
kPa
Hmdx Definition


Wind Chill Definition


Weather Definition


00:00 5.9 4.9 93 2.8 5 4   100.74     LegendNANA
01:00 5.8 4.5 92 2.4 8 6   100.56     LegendNANA
02:00 6.0 4.3 89 1.6 6 11   100.39     LegendNANA
03:00 5.8 4.6 92 2.1 6 6   100.25     LegendNANA
04:00 5.6 4.8 94 2.5 13 3   100.10     LegendNANA
05:00 5.9 5.0 94 0.8 12 2   99.92     LegendNANA
06:00 5.7 4.8 94 1.6 2 4   99.83     LegendNANA
07:00 5.9 4.9 93 1.3 11 4   99.79     LegendNANA
08:00 6.0 5.2 94 2.5 4 6   99.75     LegendNANA
09:00 6.0 5.2 95 2.5 35 4   99.74     LegendNANA
10:00 6.4 5.7 95 1.6 7 4   99.75     LegendNANA
11:00 7.2 6.2 93 0.7 12 11   99.79     LegendNANA
12:00 7.2 6.3 94 1.0 12 5   99.79     LegendNANA
13:00 7.2 6.5 95 2.9 9 4   99.75     LegendNANA
14:00 7.2 6.5 95 2.0 7 4   99.71     LegendNANA
15:00 6.3 5.6 95 1.9 1 7   99.70     LegendNANA
16:00 6.1 5.2 94 1.6 3 8   99.71     LegendNANA
17:00 5.9 5.0 94 1.0 3 8   99.73     LegendNANA
18:00 5.8 4.9 94 0.7 4 2   99.76     LegendNANA
19:00 5.7 4.8 94 0.8 32 2   99.79     LegendNANA
20:00 5.6 4.8 94 0.9 31 2   99.83     LegendNANA
21:00 5.7 4.8 95 0.5 0 1   99.91     LegendNANA
22:00 5.6 4.9 95 0.3 0 1   99.94     LegendNANA
23:00 5.8 5.2 96 0.1 20 2   100.02     LegendNANA

Notes on Data Quality.

Legend

  • E = Estimated
  • M = Missing
  • NA = Not Available*
  • [empty] = Indicates an unobserved value
Date modified: